Simultaneous Nadir Overpasses (SNOs) Predictions

Prediction of SNOs between GOES-16 and AQUA Satellite Orbit:

Table of predicted SNOs for the next 14.0 days since TLE Epoch: 8/7/2021
Index Date Time (GOES-16) GOES-16 Lat,Lon AQUA Lat,Lon Distance(km) Time Diff (sec)
1 08/08/2021 18:29:14 0.12, -75.24 0.59, -73.20 233.43 80
2 08/09/2021 06:50:29 -0.13, -75.24 0.52, -78.35 353.24 80
3 08/11/2021 06:35:37 -0.13, -75.26 -0.07, -75.38 15.18 80
4 08/13/2021 06:26:06 -0.13, -75.28 -0.73, -72.43 323.93 80
5 08/13/2021 18:44:50 0.13, -75.29 -0.34, -77.63 265.37 80
6 08/15/2021 18:35:19 0.13, -75.32 0.26, -74.67 73.79 80
7 08/17/2021 18:23:08 0.14, -75.35 0.93, -71.72 413.02 80
8 08/18/2021 06:44:22 -0.15, -75.35 0.17, -76.87 172.91 80
9 08/20/2021 06:29:30 -0.15, -75.38 -0.44, -73.91 166.86 80
10 08/20/2021 18:50:55 0.16, -75.39 -0.63, -79.11 422.46 80
